YG1CIC-13 Weather Reports


time (UTC)temp
C
wind
direction
speed
KPH
gust
KPH
rain 1hr
cm
rain 24hr
cm
rain mn
cm
humidity
%
barometer
mb
20260509021858 38 0 0.0 0.0 0.00 0.00 0.00 58
20260509020850 36 0 0.0 0.0 0.00 0.00 0.00 60
20260509015850 33 0 0.0 0.0 0.00 0.00 0.00 70
20260509014849 35 0 0.0 0.0 0.00 0.00 0.00 66
20260509013848 35 0 0.0 0.0 0.00 0.00 0.00 66
20260509012848 34 0 0.0 0.0 0.00 0.00 0.00 69
20260509011847 36 0 0.0 0.0 0.00 0.00 0.00 65
20260509010847 32 0 0.0 0.0 0.00 0.00 0.00 77
20260509005846 30 0 0.0 0.0 0.00 0.00 0.00 82
20260509004845 29 0 0.0 0.0 0.00 0.00 0.00 85
20260509003845 29 0 0.0 0.0 0.00 0.00 0.00 84
20260509002844 29 0 0.0 0.0 0.00 0.00 0.00 86
20260509001845 29 0 0.0 0.0 0.00 0.00 0.00 86
20260508235843 29 0 0.0 0.0 0.00 0.00 0.00 84
20260508234842 28 0 0.0 0.0 0.00 0.00 0.00 89
20260508233842 28 0 0.0 0.0 0.00 0.00 0.00 90
20260508232841 28 0 0.0 0.0 0.00 0.00 0.00 90
20260508231841 27 0 0.0 0.0 0.00 0.00 0.00 90
20260508230840 27 0 0.0 0.0 0.00 0.00 0.00 90
20260508225840 27 0 0.0 0.0 0.00 0.00 0.00 91
20260508224839 27 0 0.0 0.0 0.00 0.00 0.00 90
20260508223838 27 0 0.0 0.0 0.00 0.00 0.00 91
20260508222838 27 0 0.0 0.0 0.00 0.00 0.00 88
20260508221837 27 0 0.0 0.0 0.00 0.00 0.00 88
20260508220837 27 0 0.0 0.0 0.00 0.00 0.00 86
20260508215836 27 0 0.0 0.0 0.00 0.00 0.00 89
20260508214835 27 0 0.0 0.0 0.00 0.00 0.00 89
20260508213835 27 0 0.0 0.0 0.00 0.00 0.00 88
20260508212834 27 0 0.0 0.0 0.00 0.00 0.00 85
20260508211834 28 0 0.0 0.0 0.00 0.00 0.00 89
20260508210833 28 0 0.0 0.0 0.00 0.00 0.00 87
20260508205832 28 0 0.0 0.0 0.00 0.00 0.00 88
20260508204832 28 0 0.0 0.0 0.00 0.00 0.00 84
20260508203831 28 0 0.0 0.0 0.00 0.00 0.00 86
20260508202831 28 0 0.0 0.0 0.00 0.00 0.00 87
20260508201830 28 0 0.0 0.0 0.00 0.00 0.00 89
20260508200829 28 0 0.0 0.0 0.00 0.00 0.00 86
20260508195833 28 0 0.0 0.0 0.00 0.00 0.00 86
20260508194828 28 0 0.0 0.0 0.00 0.00 0.00 87
20260508193828 28 0 0.0 0.0 0.00 0.00 0.00 85
20260508192827 28 0 0.0 0.0 0.00 0.00 0.00 85
20260508191826 28 0 0.0 0.0 0.00 0.00 0.00 85
20260508190826 28 0 0.0 0.0 0.00 0.00 0.00 85
20260508185825 28 0 0.0 0.0 0.00 0.00 0.00 86
20260508184824 28 0 0.0 0.0 0.00 0.00 0.00 84
20260508183824 28 0 0.0 0.0 0.00 0.00 0.00 86
20260508182823 28 0 0.0 0.0 0.00 0.00 0.00 84
20260508181823 28 0 0.0 0.0 0.00 0.00 0.00 84
20260508180822 28 0 0.0 0.0 0.00 0.00 0.00 84
20260508175829 28 0 0.0 0.0 0.00 0.00 0.00 86
20260508174821 29 0 0.0 0.0 0.00 0.00 0.00 86
20260508173820 29 0 0.0 0.0 0.00 0.00 0.00 86
20260508172820 29 0 0.0 0.0 0.00 0.00 0.00 83
20260508171819 29 0 0.0 0.0 0.00 0.00 0.00 84
20260508170819 29 0 0.0 0.0 0.00 0.00 0.00 84
20260508165818 29 0 0.0 0.0 0.00 0.00 0.00 85
20260508164817 29 0 0.0 0.0 0.00 0.00 0.00 82
20260508163817 30 0 0.0 0.0 0.00 0.00 0.00 82
20260508162816 30 0 0.0 0.0 0.00 0.00 0.00 81
20260508161816 30 0 0.0 0.0 0.00 0.00 0.00 81
20260508160815 30 0 0.0 0.0 0.00 0.00 0.00 82
20260508155814 30 0 0.0 0.0 0.00 0.00 0.00 81
20260508154814 30 0 0.0 0.0 0.00 0.00 0.00 81
20260508153813 30 0 0.0 0.0 0.00 0.00 0.00 80
20260508152812 30 0 0.0 0.0 0.00 0.00 0.00 81
20260508151812 30 0 0.0 0.0 0.00 0.00 0.00 80
20260508150811 30 0 0.0 0.0 0.00 0.00 0.00 80
20260508145811 30 0 0.0 0.0 0.00 0.00 0.00 78
20260508144810 30 0 0.0 0.0 0.00 0.00 0.00 79
20260508143809 31 0 0.0 0.0 0.00 0.00 0.00 78
20260508142808 31 0 0.0 0.0 0.00 0.00 0.00 77
20260508141808 31 0 0.0 0.0 0.00 0.00 0.00 77
20260508140807 31 0 0.0 0.0 0.00 0.00 0.00 76
20260508135806 31 0 0.0 0.0 0.00 0.00 0.00 75
20260508134805 31 0 0.0 0.0 0.00 0.00 0.00 76
20260508133805 31 0 0.0 0.0 0.00 0.00 0.00 76
20260508132804 31 0 0.0 0.0 0.00 0.00 0.00 75
20260508131804 31 0 0.0 0.0 0.00 0.00 0.00 75
20260508130803 31 0 0.0 0.0 0.00 0.00 0.00 75
20260508125802 31 0 0.0 0.0 0.00 0.00 0.00 75
20260508124802 31 0 0.0 0.0 0.00 0.00 0.00 74
20260508123801 31 0 0.0 0.0 0.00 0.00 0.00 75
20260508122800 31 0 0.0 0.0 0.00 0.00 0.00 75
20260508121800 31 0 0.0 0.0 0.00 0.00 0.00 74
20260508120759 31 0 0.0 0.0 0.00 0.00 0.00 74
20260508115759 31 0 0.0 0.0 0.00 0.00 0.00 73
20260508114758 31 0 0.0 0.0 0.00 0.00 0.00 73
20260508113757 31 0 0.0 0.0 0.00 0.00 0.00 73
20260508112757 31 0 0.0 0.0 0.00 0.00 0.00 72
20260508111756 32 0 0.0 0.0 0.00 0.00 0.00 71
20260508110755 32 0 0.0 0.0 0.00 0.00 0.00 71
20260508105755 32 0 0.0 0.0 0.00 0.00 0.00 71
20260508104754 32 0 0.0 0.0 0.00 0.00 0.00 71
20260508103753 32 0 0.0 0.0 0.00 0.00 0.00 71
20260508102754 32 0 0.0 0.0 0.00 0.00 0.00 71
20260508101752 32 0 0.0 0.0 0.00 0.00 0.00 70
20260508100752 33 0 0.0 0.0 0.00 0.00 0.00 70
20260508095751 33 0 0.0 0.0 0.00 0.00 0.00 69
20260508094750 33 0 0.0 0.0 0.00 0.00 0.00 66
20260508093750 33 0 0.0 0.0 0.00 0.00 0.00 66
20260508092749 34 0 0.0 0.0 0.00 0.00 0.00 66
20260508091748 34 0 0.0 0.0 0.00 0.00 0.00 66
20260508090748 34 0 0.0 0.0 0.00 0.00 0.00 66
20260508085747 34 0 0.0 0.0 0.00 0.00 0.00 65
20260508084755 34 0 0.0 0.0 0.00 0.00 0.00 66
20260508082746 34 0 0.0 0.0 0.00 0.00 0.00 66
20260508081746 34 0 0.0 0.0 0.00 0.00 0.00 65
20260508080745 35 0 0.0 0.0 0.00 0.00 0.00 63
20260508075744 35 0 0.0 0.0 0.00 0.00 0.00 63
20260508074744 35 0 0.0 0.0 0.00 0.00 0.00 60
20260508073743 35 0 0.0 0.0 0.00 0.00 0.00 61
20260508072750 35 0 0.0 0.0 0.00 0.00 0.00 61
20260508071743 36 0 0.0 0.0 0.00 0.00 0.00 60
20260508070742 35 0 0.0 0.0 0.00 0.00 0.00 61
20260508065741 35 0 0.0 0.0 0.00 0.00 0.00 59
20260508064741 36 0 0.0 0.0 0.00 0.00 0.00 60
20260508063740 36 0 0.0 0.0 0.00 0.00 0.00 60
20260508062740 36 0 0.0 0.0 0.00 0.00 0.00 59
20260508061739 36 0 0.0 0.0 0.00 0.00 0.00 58
20260508060738 36 0 0.0 0.0 0.00 0.00 0.00 58
20260508055738 36 0 0.0 0.0 0.00 0.00 0.00 58
20260508054737 37 0 0.0 0.0 0.00 0.00 0.00 58
20260508053737 36 0 0.0 0.0 0.00 0.00 0.00 59
20260508052736 37 0 0.0 0.0 0.00 0.00 0.00 58
20260508051742 37 0 0.0 0.0 0.00 0.00 0.00 58
20260508050735 36 0 0.0 0.0 0.00 0.00 0.00 59
20260508045734 36 0 0.0 0.0 0.00 0.00 0.00 61
20260508044734 36 0 0.0 0.0 0.00 0.00 0.00 61
20260508043733 36 0 0.0 0.0 0.00 0.00 0.00 62
20260508042732 37 0 0.0 0.0 0.00 0.00 0.00 60
20260508041732 37 0 0.0 0.0 0.00 0.00 0.00 61
20260508040738 36 0 0.0 0.0 0.00 0.00 0.00 60
20260508035731 36 0 0.0 0.0 0.00 0.00 0.00 59
20260508034730 37 0 0.0 0.0 0.00 0.00 0.00 58
20260508033730 36 0 0.0 0.0 0.00 0.00 0.00 60
20260508032729 36 0 0.0 0.0 0.00 0.00 0.00 60
20260508031728 37 0 0.0 0.0 0.00 0.00 0.00 59
20260508030728 37 0 0.0 0.0 0.00 0.00 0.00 59
20260508025727 36 0 0.0 0.0 0.00 0.00 0.00 60
20260508024727 38 0 0.0 0.0 0.00 0.00 0.00 57
20260508023726 37 0 0.0 0.0 0.00 0.00 0.00 59
20260508022725 38 0 0.0 0.0 0.00 0.00 0.00 57